Torna al catalogo

STARLINK-30150

AttivoComunicazioniVLEO
NORAD 57621·PAYLOAD·🇺🇸 United States

Lanciato Aug 11, 2023 da Cape Canaveral Space Force Station

Loading…

Prossimi Passaggi (prossime 24 ore)

TLE

AggiornatoSource: CelesTrak SupGP

Epoca: Sep 14, 2026, 21:41 UTC

1 57621C 23119V   26257.90395833  .00029417  00000+0  10662-2 0  2575
2 57621  43.0007  92.8463 0001717 277.8643 169.9858 15.27543155    17

Traccia STARLINK-30150 in tempo reale con AllMySat

Download on the App Store